Content
SEND FEEDBACK

Switzerland Flag

VERSOIX, SWITZERLAND


Home > Europe > Switzerland
Elevation: 416 meters     Latitude: 46 12N     Longitude: 006 12E

WEATHER
 
SELECT A DAY
Number of Records: 348,399;   Date Range: 7/1/96 - 3/22/16
 
SHARE

PRINT THIS DATA

[ ← Previous Day ]
WEATHER ALMANAC - 31 MARCH, 2013
[ Next Day → ]
[ °F ]   °C
Weather ElementAverageHighLow
Temperature5.3 °C9 °C (3:20 pm)2 °C (12:50 am)
Dewpoint0.3 °C5 °C (12:20 am)-4.4 °C (2:00 pm)
Humidity70.3 %100 % (1:20 am)29 % (2:00 pm)
Barometer1005.4 hPa1007.8 hPa (10:00 am)1002 hPa (12:20 am)
Wind Speed13.7 km/h24.1 km/h (6:00 pm)
Weather ElementAverage
Visibility9 km
Wind DirectionNE (44.7 °)

Weather ElementTotal
Precipitation---
Heating Degree Days12.8 (Base 18.3)
Averaged from 66 records on 31 March, 2013
WEATHER CONDITIONS BREAKOUT
WIND DIRECTION BREAKOUT
WEATHER BY HOUR - 31 MARCH, 2013
[ °F ]   °C
Local TimeTemperatureDewpointHumidityBarometerVisibilityWind DirectionWind SpeedGust SpeedPrecipitationEventsConditions
12:00 AM2.8 °C-3.3 °C54 %1007.1 hPaNNE (20°)13 km/h
12:20 AM6 °C5 °C93 %1002 hPa5 kmCalmRainLight Rain
12:20 AM3 °C-3 °C65 %1005.1 hPa8 kmNorth (10°)11.1 km/h
12:50 AM2 °C-3 °C70 %1005.1 hPa8 kmVariable5.6 km/h
12:50 AM6 °C5 °C93 %1002 hPaVariable3.7 km/hRainLight Rain
1:00 AM6.1 °C5 °C91 %1003.7 hPa3.2 kmNorth (350°)3.7 km/hRainLight Rain
1:20 AM5 °C5 °C100 %1003 hPa2.6 kmVariable1.9 km/hMostly Cloudy
1:50 AM5 °C5 °C100 %1002 hPa1.8 kmNE (50°)1.9 km/hMostly Cloudy
3:00 AM6.1 °C5 °C91 %1004.1 hPaENE (60°)5.6 km/h
3:50 AM5 °C5 °C100 %1003 hPa6.9 kmNE (50°)9.3 km/hMostly Cloudy
4:00 AM5.6 °C3.9 °C86 %1004.1 hPaNE (40°)9.3 km/h
4:20 AM5 °C5 °C100 %1003 hPa10 kmNNE (30°)7.4 km/hMostly Cloudy
4:50 AM5 °C4 °C93 %1003 hPa10 kmNE (50°)13 km/hMostly Cloudy
5:20 AM4 °C3 °C93 %1003 hPa10 kmENE (60°)18.5 km/hRainLight Rain Showers
5:50 AM4 °C2 °C87 %1004.1 hPa10 kmNE (50°)18.5 km/hMostly Cloudy
6:00 AM3.3 °C1.7 °C87 %1005.4 hPaNE (40°)20.4 km/h
6:20 AM3 °C2 °C93 %1004.1 hPa10 kmNE (40°)20.4 km/hRainLight Rain Showers
6:50 AM3 °C2 °C93 %1004.1 hPa10 kmNE (40°)18.5 km/hRainLight Rain Showers
7:00 AM2.8 °C1.7 °C87 %1006.4 hPaNE (40°)18.5 km/h
7:20 AM3 °C2 °C93 %1005.1 hPa10 kmNE (40°)14.8 km/hRainLight Rain Showers
7:50 AM3 °C2 °C93 %1005.1 hPa9 kmNE (40°)11.1 km/hRainLight Rain Showers
8:00 AM2.8 °C1.1 °C85 %1007.1 hPa11.3 kmNE (50°)16.7 km/hRainLight Rain Showers
8:20 AM3 °C2 °C93 %1005.1 hPa10 kmNE (50°)13 km/hMostly Cloudy
8:50 AM3 °C2 °C93 %1006.1 hPa9 kmNE (50°)9.3 km/hMostly Cloudy
9:00 AM3.3 °C1.7 °C82 %1007.5 hPaNE (40°)11.1 km/h
9:20 AM3 °C2 °C93 %1006.1 hPa9 kmNNE (30°)9.3 km/hMostly Cloudy
9:50 AM4 °C2 °C87 %1006.1 hPa9 kmNE (50°)7.4 km/hMostly Cloudy
10:00 AM3.9 °C1.7 °C78 %1007.8 hPaNNE (30°)11.1 km/h
10:20 AM4 °C2 °C87 %1006.1 hPa9 kmNNE (20°)9.3 km/hMostly Cloudy
10:50 AM5 °C2 °C81 %1006.1 hPa10 kmENE (60°)14.8 km/hMostly Cloudy
11:20 AM5 °C1 °C76 %1006.1 hPa10 kmENE (60°)13 km/hScattered Clouds
11:50 AM6 °C2 °C76 %1006.1 hPa10 kmENE (60°)16.7 km/hScattered Clouds
12:00 PM6.1 °C0 °C54 %1007.5 hPaENE (60°)14.8 km/h
12:20 PM7 °C0 °C61 %1006.1 hPa10 kmENE (60°)13 km/hMostly Cloudy
12:50 PM7 °C0 °C61 %1006.1 hPa10 kmENE (70°)14.8 km/hScattered Clouds
1:00 PM7.2 °C-1.7 °C40 %1007.1 hPaNE (50°)13 km/h
1:20 PM8 °C-3 °C46 %1006.1 hPa10 kmENE (60°)11.1 km/hScattered Clouds
1:50 PM8 °C-3 °C46 %1006.1 hPa10 kmNE (40°)13 km/hScattered Clouds
2:00 PM7.8 °C-4.4 °C29 %1006.8 hPa9.7 kmNNE (30°)14.8 km/hHaze
2:20 PM8 °C-3 °C46 %1006.1 hPa10 kmNE (50°)9.3 km/hPartly Cloudy
2:50 PM8 °C-3 °C46 %1006.1 hPa10 kmENE (70°)11.1 km/hPartly Cloudy
3:00 PM7.8 °C-2.8 °C35 %1006.8 hPaNE (50°)11.1 km/h
3:20 PM9 °C-2 °C46 %1006.1 hPa10 kmNE (50°)14.8 km/hPartly Cloudy
3:50 PM8 °C-2 °C50 %1005.1 hPa10 kmNE (50°)14.8 km/hPartly Cloudy
4:00 PM8.3 °C-2.8 °C32 %1006.4 hPaNE (40°)18.5 km/h
4:20 PM8 °C-2 °C50 %1005.1 hPa10 kmENE (60°)20.4 km/hPartly Cloudy
4:50 PM8 °C-2 °C50 %1005.1 hPa10 kmNE (40°)16.7 km/hPartly Cloudy
5:20 PM8 °C-2 °C50 %1005.1 hPa10 kmNE (40°)18.5 km/hPartly Cloudy
5:50 PM8 °C-1 °C53 %1005.1 hPa9 kmNE (40°)20.4 km/hPartly Cloudy
6:00 PM7.8 °C-1.7 °C38 %1006.4 hPaNE (50°)24.1 km/h
6:20 PM7 °C-1 °C57 %1005.1 hPa10 kmNE (40°)18.5 km/hPartly Cloudy
6:50 PM7 °C-1 °C57 %1006.1 hPa10 kmNE (40°)14.8 km/hPartly Cloudy
7:00 PM6.1 °C-1.1 °C47 %1006.8 hPaNNE (30°)18.5 km/h
7:20 PM6 °C-1 °C61 %1006.1 hPa10 kmNE (40°)14.8 km/hPartly Cloudy
7:50 PM6 °C-1 °C61 %1006.1 hPa9 kmNE (40°)18.5 km/hPartly Cloudy
8:00 PM5.6 °C-1.7 °C49 %1007.5 hPa9.7 kmNE (40°)18.5 km/hHaze
8:20 PM5 °C-1 °C65 %1006.1 hPa9 kmNE (40°)18.5 km/hPartly Cloudy
8:50 PM5 °C-1 °C65 %1006.1 hPa9 kmNE (40°)16.7 km/hPartly Cloudy
9:00 PM4.4 °C-0.6 °C60 %1007.5 hPaNE (40°)18.5 km/h
9:20 PM4 °C0 °C75 %1006.1 hPaNNE (30°)16.7 km/hClear
9:50 PM4 °C0 °C75 %1006.1 hPa9 kmNNE (30°)20.4 km/h
10:00 PM3.3 °C-1.1 °C65 %1007.5 hPaNNE (30°)22.2 km/h
10:20 PM4 °C-1 °C70 %1006.1 hPa9 kmNNE (30°)18.5 km/h
10:50 PM3 °C-1 °C75 %1006.1 hPa8 kmNNE (20°)13 km/h
11:20 PM3 °C-2 °C70 %1006.1 hPa8 kmNNE (20°)13 km/h
11:50 PM3 °C-3 °C65 %1005.1 hPa8 kmNNE (20°)13 km/h
Hourly data recorded from LSGG, located 0 kilometers away from Versoix, Switzerland




STORIES FROM OUR PARTNERS